Tracking 20040 objects as of 19-Nov-2019
Live streaming from Space Station
objects crossing your sky now

COSMOS 1176 FUEL CORE

Track COSMOS 1176 FUEL CORE now!
10-day predictions


NORAD ID: 11971
Int'l Code: 1980-034D
Perigee: 877.5 km
Apogee: 946.2 km
Inclination: 64.8 °
Period: 103.1 minutes
Semi major axis: 7282 km
RCS: 0.1595 m2 (medium)
Launch date: April 29, 1980
Source: Commonwealth of Independent States (former USSR) (CIS)
Launch site: TYURATAM MISSILE AND SPACE COMPLEX (TTMTR)

Note: This is SATELLITE DEBRIS
aabbcc
Your satellite tracking list
Your tracking list is empty




NASA's NSSDC Master Catalog

Two Line Element Set (TLE):
1 11971U 80034D   19322.71187683 -.00000087  00000-0  41923-5 0  9992
2 11971  64.8342 358.4263 0047177 233.4555 222.2865 13.96861083 20523
Source of the keplerian elements: AFSPC